This is the latest recevied weather packets stored in our database for station/object VK2XSE. If no packets are shown the sender has not sent any weather packets the latest 10 day(s).
| Time | Temp. | Humidity | Pressure | Rain* | Wind** | Luminosity | Snow |
|---|---|---|---|---|---|---|---|
| 1777961717 | 17.22° C | 59% | 1021.4 hPa | 0 mm | - | 194 W/m² | - |
| 1777961117 | 17.22° C | 61% | 1021.4 hPa | 0 mm | - | 153 W/m² | - |
| 1777960517 | 17.78° C | 59% | 1021.3 hPa | 0 mm | - | 50 W/m² | - |
| 1777959917 | 18.33° C | 57% | 1021.3 hPa | 0 mm | - | 231 W/m² | - |
| 1777959317 | 17.78° C | 58% | 1021.2 hPa | 0 mm | - | 332 W/m² | - |
| 1777958717 | 17.78° C | 57% | 1021.2 hPa | 0 mm | - | 338 W/m² | - |
| 1777958117 | 17.78° C | 60% | 1021 hPa | 0 mm | - | 359 W/m² | - |
| 1777957517 | 18.33° C | 57% | 1020.9 hPa | 0 mm | - | 187 W/m² | - |
| 1777956917 | 18.33° C | 56% | 1020.9 hPa | 0 mm | - | 466 W/m² | - |
| 1777956317 | 18.33° C | 56% | 1020.8 hPa | 0 mm | - | 463 W/m² | - |
| 1777955717 | 18.33° C | 56% | 1020.9 hPa | 0 mm | - | 486 W/m² | - |
| 1777955117 | 18.33° C | 56% | 1020.8 hPa | 0 mm | - | 519 W/m² | - |
| 1777954517 | 18.33° C | 56% | 1020.9 hPa | 0 mm | - | 522 W/m² | - |
| 1777953917 | 18.89° C | 56% | 1020.9 hPa | 0 mm | - | 622 W/m² | - |
| 1777953317 | 18.89° C | 55% | 1020.9 hPa | 0 mm | - | 669 W/m² | - |
| 1777952717 | 18.33° C | 60% | 1020.8 hPa | 0 mm | - | 622 W/m² | - |
| 1777952117 | 18.33° C | 58% | 1020.9 hPa | 0 mm | - | 674 W/m² | - |
| 1777951516 | 17.78° C | 60% | 1021 hPa | 0 mm | - | 673 W/m² | - |
| 1777950917 | 17.22° C | 62% | 1021 hPa | 0 mm | - | 351 W/m² | - |
| 1777950319 | 16.67° C | 64% | 1021.1 hPa | 0 mm | - | 635 W/m² | - |
| 1777949718 | 16.67° C | 63% | 1021.2 hPa | 0 mm | - | 111 W/m² | - |
| 1777949118 | 17.22° C | 62% | 1021.4 hPa | 0 mm | - | 132 W/m² | - |
| 1777948517 | 17.78° C | 63% | 1021.4 hPa | 0 mm | - | 88 W/m² | - |
| 1777947918 | 17.22° C | 67% | 1021.4 hPa | 0 mm | - | 706 W/m² | - |
| 1777947318 | 17.22° C | 67% | 1021.6 hPa | 0 mm | - | 673 W/m² | - |
* Rain latest hour (hover to see other rain measurements)
** Current wind speed in m/s (hover to see current wind gust speed)